Regional Weather Roundup
Issued by NWS

Home | Current Version | Previous Version | Text Only | Print | Product List | Glossary Off
Versions: 1 2 3 4 5 6 7 8 9 10 11 12 13 14 15 16 17 18 19 20 21 22 23 24 25 26 27 28 29 30 31 32 33 34 35 36 37 38 39 40 41 42 43 44 45 46 47 48 49 50

000
ASUS45 KTFX 272010
RWRMT
MONTANA REGIONAL WEATHER ROUNDUP
NATIONAL WEATHER SERVICE GREAT FALLS MT
200 PM MDT WED MAY 27 2015

NOTE: "FAIR" INDICATES FEW OR NO CLOUDS BELOW 12000 FEET WITH NO
SIGNIFICANT WEATHER AND/OR OBSTRUCTIONS TO VISIBILITY.

MTZ001>007-043-272100-
WEST OF THE DIVIDE

CITY           SKY/WX    TMP DP  RH WIND       PRES   REMARKS
KALISPELL      CLOUDY    64  47  53 SE10      30.01F
MISSOULA       PTSUNNY   65  41  41 NE8       29.99F
BUTTE          CLOUDY    55  41  59 SW7       30.06R
MULLAN PASS    LGT RAIN  49  39  68 CALM      30.09S
DEER LODGE       N/A     61  43  51 CALM      30.06F
EUREKA           N/A     66  46  48 CALM      30.00F
HAMILTON         N/A     64  41  42 NE10      30.00S
LIBBY            N/A     66  50  55 CALM      30.00F
$$

MTZ008-052>055-272100-
SOUTHWEST MONTANA

CITY           SKY/WX    TMP DP  RH WIND       PRES   REMARKS
BOZEMAN        MOSUNNY   62  47  57 N6        30.00F
DILLON         CLOUDY    52  42  69 NE5       30.05R
W YELLOWSTONE  MOSUNNY   57  36  44 S15G21    30.06F
$$

MTZ009-010-012-014-046-048-049-054-272100-
EAST SLOPES AND CENTRAL MONTANA

CITY           SKY/WX    TMP DP  RH WIND       PRES   REMARKS
CUT BANK       CLOUDY    64  44  48 CALM      29.99F
GREAT FALLS    PTSUNNY   62  49  62 W13       30.00F
MALMSTROM AFB  MOSUNNY   60  49  66 W10G18    30.01F
HELENA         PTSUNNY   61  45  55 CALM      30.02R
$$

MTZ011-013-016-021-045-047-050-051-272100-
NORTH CENTRAL MONTANA

CITY           SKY/WX    TMP DP  RH WIND       PRES   REMARKS
HAVRE          CLOUDY    70  47  43 SW5       29.91F
LEWISTOWN      PTSUNNY   64  47  53 VRB3      29.99F
N BAR RANCH    FAIR      57  50  77 NW5       30.03F
CHINOOK          N/A     66  52  59 E5        29.93F
FORT BENTON      N/A     66  48  52 SW10G18   29.97F
$$

MTZ017>020-022>027-061-062-272100-
NORTHEAST MONTANA

CITY           SKY/WX    TMP DP  RH WIND       PRES   REMARKS
GLASGOW        PTSUNNY   68  55  63 SE12G20   29.91F
JORDAN           N/A     69  51  52 VRB5      29.91F
SIDNEY         CLOUDY    70  50  49 NW8       29.93R
WOLF POINT     CLOUDY    65  57  75 S6        29.93F
PLENTYWOOD       N/A     73  50  43 N8        29.91F
POPLAR           N/A     64  54  68 S3        29.93F
$$

MTZ028>42-056>058-272100-
SOUTHCENTRAL AND SOUTHEAST MONTANA

CITY           SKY/WX    TMP DP  RH WIND       PRES   REMARKS
BAKER          CLOUDY    59  51  75 N25G33    29.95R
BILLINGS       CLOUDY    63  50  62 NW14      29.97S THUNDER
LIVINGSTON     MOSUNNY   64  43  46 W10       29.99F
MILES CITY     CLOUDY    60  56  86 NE5       29.94F
BIG TIMBER       N/A     63  43  48 NW3       30.00S
FORSYTH          N/A     68  55  64 CALM      29.93F
$$

REGIONAL REPORTS...DAKOTAS

CITY           SKY/WX    TMP DP  RH WIND       PRES   REMARKS
WILLISTON      CLOUDY    79  43  27 SE8G18    29.87F
MINOT          MOSUNNY   78  50  37 NE12G18   29.93F
DICKINSON      CLOUDY    77  50  38 S16G24    29.88F
BEACH          TSTM      57  57 100 W16       29.98R
CROSBY         FAIR      73  50  43 E18       29.93F
WATFORD CITY   LGT RAIN  59  50  72 SW3       29.91R
BISMARCK       PTSUNNY   81  50  33 S17G23    29.94F
GRAND FORKS    SUNNY     74  50  42 N8        29.98R
FARGO          SUNNY     80  54  40 N3        29.96S
BUFFALO SD       N/A     74  54  49 S13       29.86F
RAPID CITY     CLOUDY    66  56  70 S6        29.96R
$$

REGIONAL REPORTS...WYOMING/IDAHO/WASHINGTON

CITY           SKY/WX    TMP DP  RH WIND       PRES   REMARKS
GILLETTE       PTSUNNY   68  50  52 W9        29.95F
SHERIDAN       MOSUNNY   66  50  56 NW6       29.97F
BUFFALO WY     CLOUDY    65  47  52 N12       30.00F
CODY           CLOUDY    61  45  55 CALM      30.00S
YELLOWSTONE LA   N/A     45  40  82 CALM      30.16
IDAHO FALLS    CLOUDY    61  48  62 S12       30.04F
SALMON         PTSUNNY   57  45  62 N9        30.02S
BOISE          MOSUNNY   71  45  39 CALM      29.97F
SPOKANE        PTSUNNY   68  47  46 VRB3      30.01F
$$

REGIONAL REPORTS...ALBERTA

CITY           SKY/WX    TMP DP  RH WIND       PRES   REMARKS
EDMONTON       PTSUNNY   72  48  43 W6        29.91F
CALGARY        PTSUNNY   68  43  40 S7        29.98F
MEDICINE HAT   PTSUNNY   75  45  33 VRB6      29.94S
$$

REGIONAL REPORTS...SASKATCHEWAN

CITY           SKY/WX    TMP DP  RH WIND       PRES   REMARKS
SWIFT CURRENT  PTSUNNY   72  46  40 E13G28    29.93F
REGINA         PTSUNNY   70  48  46 E12       29.97F
SASKATOON      PTSUNNY   66  37  34 VRB10     30.02F
$$


USA.gov is the U.S. government's official web portal to all federal, state and local government web resources and services.